Central Point, OR

1:25 PM PST on February 10, 2016 (GMT -0800)
Rogue Valley International-Medford

Weather History for KMFR - September, 2012

Change the Weather History Date:

Sunday, September 23, 2012

  Actual Average Record
Temperature  
Mean Temperature 68 °F 65 °F  
Max Temperature 82 °F 81 °F 100 °F (1943)
Min Temperature 54 °F 48 °F 33 °F (1913)
Degree Days  
Heating Degree Days 0 3  
Month to date heating degree days 1 35  
Since 1 July heating degree days 1 45  
Cooling Degree Days 3 3  
Month to date cooling degree days 155 99  
Year to date cooling degree days 917 806  
Growing Degree Days 18 (Base 50)    
Moisture  
Dew Point 42 °F    
Average Humidity 42    
Maximum Humidity 61    
Minimum Humidity 23    
Precipitation  
Precipitation 0.00 in 0.02 in 1.93 in (1983)
Month to date precipitation 0.00 0.41  
Year to date precipitation 14.12 10.55  
Snow  
Snow 0.00 in 0.00 in - ()
Month to date snowfall 0.0 0.0  
Since 1 July snowfall 0.0 0.0  
Snow Depth 0.00 in    
Sea Level Pressure  
Sea Level Pressure 30.04 in    
Wind  
Wind Speed 4 mph (WNW)    
Max Wind Speed 18 mph    
Max Gust Speed 23 mph    
Visibility 10 miles    
Events      
T = Trace of Precipitation, MM = Missing Value Source: NWS Daily Summary

Daily Weather History Graph

Daily Weather History Graph

Search for Another Location

Airport or City:

Trip Planner

Search our weather history database for the weather conditions in past years. The results will help you decide how hot, cold, wet, or windy it might be!

Date:

Astronomy

Sep. 23, 2012 Rise Set
Actual Time 7:00 AM PDT 7:05 PM PDT
Civil Twilight 6:32 AM PDT 7:33 PM PDT
Nautical Twilight 5:59 AM PDT 8:06 PM PDT
Astronomical Twilight 5:26 AM PDT 8:40 PM PDT
Moon 3:17 PM PDT (9/23) 12:11 AM PDT (9/23)
Length of Visible Light 13h 01m
Length of Day
12h 05m
First Quarter, 61% of the Moon is Illuminated
Sep 23
First Quarter
Sep 29
Full
Oct 8
Last Quarter
Oct 15
New
Oct 21
First Quarter

Hourly Weather History & Observations

Time (PDT) Temp. Dew Point Humidity Pressure Visibility Wind Dir Wind Speed Gust Speed Precip Events Conditions
12:53 AM 64.0 °F 39.0 °F 40% 30.06 in 10.0 mi Calm Calm - N/A   Clear
1:53 AM 62.1 °F 41.0 °F 46% 30.05 in 10.0 mi South 4.6 mph - N/A   Clear
2:53 AM 62.1 °F 39.9 °F 44% 30.04 in 10.0 mi SSW 4.6 mph - N/A   Clear
3:53 AM 61.0 °F 39.9 °F 46% 30.04 in 10.0 mi Calm Calm - N/A   Clear
4:53 AM 60.1 °F 42.1 °F 51% 30.04 in 10.0 mi Calm Calm - N/A   Partly Cloudy
5:53 AM 59.0 °F 42.8 °F 55% 30.07 in 10.0 mi Calm Calm - N/A   Clear
6:53 AM 55.9 °F 43.0 °F 62% 30.06 in 10.0 mi South 3.5 mph - N/A   Clear
7:53 AM 55.0 °F 42.1 °F 62% 30.09 in 10.0 mi Calm Calm - N/A   Clear
8:53 AM 61.0 °F 43.0 °F 52% 30.09 in 10.0 mi Calm Calm - N/A   Clear
9:53 AM 64.0 °F 43.0 °F 46% 30.09 in 10.0 mi Calm Calm - N/A   Clear
10:53 AM 69.1 °F 42.1 °F 38% 30.07 in 10.0 mi North 3.5 mph - N/A   Clear
11:53 AM 72.0 °F 42.1 °F 34% 30.05 in 10.0 mi NNW 3.5 mph - N/A   Clear
12:53 PM 73.9 °F 41.0 °F 30% 30.03 in 10.0 mi Calm Calm - N/A   Clear
1:53 PM 78.1 °F 44.1 °F 30% 30.00 in 10.0 mi West 4.6 mph - N/A   Partly Cloudy
2:53 PM 80.1 °F 42.1 °F 26% 29.97 in 10.0 mi Variable 3.5 mph - N/A   Clear
3:53 PM 81.0 °F 39.9 °F 23% 29.97 in 10.0 mi NW 9.2 mph 17.3 mph N/A   Partly Cloudy
4:53 PM 81.0 °F 41.0 °F 24% 29.96 in 10.0 mi West 13.8 mph 20.7 mph N/A   Partly Cloudy
5:53 PM 77.0 °F 41.0 °F 28% 29.98 in 10.0 mi North 13.8 mph - N/A   Partly Cloudy
6:53 PM 73.0 °F 43.0 °F 34% 30.01 in 10.0 mi North 13.8 mph - N/A   Partly Cloudy
7:53 PM 70.0 °F 43.0 °F 38% 30.03 in 10.0 mi NNW 5.8 mph - N/A   Partly Cloudy
8:53 PM 68.0 °F 45.0 °F 43% 30.04 in 10.0 mi Calm Calm - N/A   Clear
9:53 PM 66.0 °F 45.0 °F 47% 30.05 in 10.0 mi Calm Calm - N/A   Clear
10:53 PM 62.1 °F 44.1 °F 52% 30.05 in 10.0 mi South 4.6 mph - N/A   Clear
11:53 PM 60.1 °F 45.0 °F 57% 30.05 in 10.0 mi Calm Calm - N/A   Clear